Probability
46 41 31 20 21 38 52 47 28 10 3 1 0 0 0 0 0 0 1 13 35 58 71 76 74 65 53 35 15 4 1 2 3 2 0 0 0 0 0 0 0 0 0
68 66 59 45 38 44 52 50 37 21 11 5 1 0 0 0 0 0 1 11 35 61 76 82 82 78 67 53 32 15 8 7 7 3 1 0 0 0 0 0 0 0 0
81 83 81 70 61 60 63 62 56 46 33 18 8 2 0 0 0 0 1 7 28 58 78 86 88 86 82 73 56 36 23 19 15 9 3 0 0 0 0 0 0 0 0
65 70 74 73 74 79 81 79 77 72 60 40 20 6 2 1 1 1 2 6 23 51 73 83 84 81 77 70 58 45 36 30 28 25 15 5 0 0 0 0 0 0 0
49 60 70 75 83 91 92 90 89 85 75 57 35 16 6 3 1 2 3 7 20 42 61 70 72 68 57 46 38 33 30 28 31 40 38 22 7 1 0 0 0 0 0
58 70 80 84 89 92 93 91 89 85 76 62 44 24 10 3 2 3 5 6 11 23 38 47 51 47 36 25 19 19 18 17 21 37 53 49 25 6 0 0 0 0 0
70 77 84 85 85 86 88 88 85 78 70 61 47 26 9 3 2 4 5 5 5 8 16 22 26 26 22 16 13 13 13 10 11 22 43 54 38 13 1 0 0 0 0
57 64 72 73 74 77 78 77 74 66 57 52 42 22 6 1 2 3 4 5 4 3 5 7 8 9 11 12 9 8 8 7 6 10 20 31 28 13 2 0 0 0 1
32 40 51 56 60 62 60 55 51 47 40 36 29 15 4 0 1 1 2 3 2 1 2 2 1 1 3 4 4 3 2 2 2 4 5 8 9 6 1 0 0 0 1
13 18 26 33 38 39 36 29 24 24 23 20 15 10 3 0 0 0 0 1 0 0 0 0 0 0 0 0 0 0 0 0 0 1 1 1 1 1 0 0 0 0 1
4 6 9 13 17 18 16 11 8 9 11 10 8 6 3 0 0 0 0 0 0 0 0 0 0 0 0 0 0 0 0 0 0 0 0 0 0 0 0 0 0 0 0
1 1 2 3 5 6 6 3 2 2 3 4 4 3 1 0 0 0 0 0 0 0 0 0 0 0 0 0 0 0 0 0 0 0 0 0 0 0 0 0 0 0 0
1 1 1 1 1 1 1 0 0 0 1 1 1 1 0 0 0 0 0 0 0 0 0 0 0 0 0 0 0 0 0 0 0 0 0 0 0 0 0 0 0 0 0
0 0 0 0 0 0 0 0 0 0 0 0 0 0 0 0 0 0 0 0 0 0 0 0 0 0 0 0 0 0 0 0 0 0 0 0 0 0 0 0 0 0 0
0 0 0 0 0 0 0 0 0 0 1 0 0 0 0 0 0 0 0 0 0 0 0 0 0 0 0 0 0 0 0 0 0 0 0 0 0 0 0 0 0 0 0
0 0 0 0 0 0 0 0 0 0 0 0 0 0 0 0 0 0 0 0 0 0 0 0 0 0 0 0 0 0 0 0 0 0 0 0 0 0 0 0 0 0 0
0 0 0 0 0 0 0 0 0 0 0 0 0 0 0 0 0 0 0 0 0 0 0 0 0 0 0 0 0 0 0 0 0 0 0 0 0 0 0 0 0 0 0
0 0 0 0 0 0 0 0 0 0 0 0 0 0 0 0 0 0 0 0 0 0 0 0 0 0 0 0 0 0 0 0 0 0 0 0 0 0 0 0 0 0 0
0 0 0 0 0 0 0 0 0 0 0 0 0 0 0 0 0 0 0 0 0 0 0 0 0 0 0 0 0 0 0 0 0 0 0 0 0 0 0 0 0 0 0
0 0 0 0 0 0 0 0 0 0 0 0 0 0 0 0 0 0 0 0 0 0 0 0 0 0 0 0 0 0 0 0 0 0 0 0 0 0 0 0 0 0 0
0 0 0 0 0 0 0 0 0 0 0 0 0 0 0 0 0 0 0 0 0 0 0 0 0 0 0 0 0 0 0 0 0 0 0 0 0 0 0 0 0 0 0
0 0 0 0 0 0 0 0 0 0 0 0 0 0 0 0 0 0 0 0 0 0 0 0 0 0 0 0 0 0 0 0 0 0 0 0 0 0 0 0 0 0 0
0 0 0 0 0 0 0 0 0 0 0 0 0 0 0 0 0 0 0 0 0 0 0 0 0 0 0 0 0 0 0 0 0 0 0 0 0 0 0 0 0 0 0
0 0 0 0 0 0 0 0 0 0 0 0 0 0 0 0 0 0 0 0 0 0 0 0 0 0 0 0 0 0 0 0 0 0 0 0 0 0 0 0 0 0 0
0 0 0 0 0 0 0 0 0 0 0 0 0 0 0 0 0 0 0 0 0 0 0 0 0 0 0 0 0 0 0 0 0 0 0 0 0 0 0 0 0 0 0
0 0 0 0 0 0 0 0 0 0 0 0 0 0 0 0 0 0 0 0 0 0 0 0 0 0 0 0 0 0 0 0 0 0 0 0 0 0 0 0 0 0 0
Wind_Speed
7 7 6 5 6 6 6 6 7 9 9 10 10 10 11 10 9 8 6 15 17 16 17 18 19 19 19 19 19 19 18 18 17 16 16 16 16 17 18 19 18 17 17
8 8 7 6 6 6 7 7 9 9 9 8 9 10 9 8 8 8 8 10 16 18 18 19 19 19 20 20 20 20 19 18 17 17 17 17 17 17 18 18 18 17 17
8 8 7 7 6 6 7 6 7 6 7 7 8 8 6 6 6 7 8 7 8 15 19 19 19 20 21 22 22 21 19 18 17 17 17 18 18 17 17 17 17 17 17
8 7 7 8 7 6 5 5 5 5 5 5 5 5 5 5 7 7 7 7 7 8 12 19 20 20 21 23 23 22 20 19 18 18 18 18 18 18 17 17 17 17 17
8 7 8 8 8 6 6 6 5 5 5 5 5 5 6 6 7 8 8 8 8 8 8 11 18 19 21 22 22 21 20 19 19 19 20 19 19 18 17 17 17 17 17
8 7 7 9 8 7 7 6 7 6 5 5 7 6 6 6 5 6 8 8 8 10 9 9 9 11 19 21 21 21 21 20 19 19 20 20 20 19 17 16 16 17 17
8 6 6 7 7 7 9 8 6 7 6 4 3 5 5 7 8 8 7 7 9 10 9 9 7 7 7 15 19 20 20 19 19 18 19 20 21 19 18 17 17 18 18
7 6 6 6 6 6 7 7 6 5 5 4 4 3 3 4 5 7 6 5 7 6 7 7 7 6 6 5 8 15 18 19 19 19 18 19 20 19 18 18 18 18 19
7 7 7 6 6 6 6 7 7 7 6 5 5 5 4 5 3 3 2 1 2 2 2 3 3 3 3 3 4 7 12 14 17 19 19 18 18 19 19 20 20 19 20
8 7 7 7 6 5 6 7 6 5 6 5 4 4 5 4 3 3 3 1 1 1 2 3 3 2 0 1 2 2 4 7 9 12 15 17 16 17 18 19 20 20 20
8 8 7 7 7 6 7 7 6 6 5 5 4 3 3 3 4 4 3 3 1 2 3 3 2 0 1 2 2 3 4 3 4 7 9 12 14 15 17 19 20 21 22
7 9 8 7 7 6 6 6 6 6 5 4 4 3 3 3 3 3 3 2 2 3 2 1 1 1 1 2 2 4 3 3 4 5 5 6 8 11 13 16 18 20 20
7 8 7 6 5 6 5 5 5 5 5 4 4 3 3 3 2 2 2 1 1 2 3 3 3 3 2 2 1 3 3 3 4 5 5 4 2 1 2 1 2 5 9
8 8 7 5 5 4 4 4 3 4 4 5 5 4 3 2 2 2 2 2 1 1 2 3 2 4 3 2 3 4 2 4 3 4 4 4 5 4 4 3 1 1 2
6 5 3 3 3 3 3 3 3 5 4 4 4 3 2 1 1 2 2 2 3 2 1 3 3 3 3 3 5 3 3 5 3 2 2 2 2 2 1 0 1 3 4
5 5 4 3 2 2 2 3 3 4 4 4 3 3 2 1 0 0 1 1 2 3 2 1 2 2 4 4 6 5 5 7 5 4 2 2 2 2 2 3 3 4 6
5 5 5 5 4 3 2 1 1 2 3 3 3 4 4 3 2 2 2 2 2 3 4 2 3 4 5 5 5 5 5 5 5 8 5 3 3 4 4 5 6 7 7
5 5 5 5 5 4 3 2 2 4 5 6 6 6 5 4 4 3 3 4 3 3 5 5 4 4 5 4 4 4 4 5 5 9 9 7 5 5 5 5 6 7 8
5 5 5 5 5 4 4 4 5 7 8 8 7 7 5 6 6 5 5 5 5 6 5 5 3 3 3 3 3 4 4 4 5 8 10 9 8 7 6 6 7 7 8
4 4 4 4 4 4 5 6 8 9 9 8 7 6 6 6 6 6 6 6 7 7 6 5 3 3 3 3 3 3 4 3 4 5 6 6 7 7 7 9 9 10 10
3 2 3 4 4 4 4 7 7 9 9 9 8 7 7 9 9 8 7 6 7 6 5 4 3 3 4 4 3 3 3 3 3 3 3 3 3 3 4 6 9 12 12
2 1 3 4 4 3 6 9 8 8 9 9 8 7 8 8 11 13 13 11 8 6 5 3 2 3 3 3 3 3 3 4 4 4 3 3 2 2 3 3 8 11 12
2 2 3 4 4 4 9 12 12 8 7 7 7 7 7 8 8 7 10 11 10 10 6 4 3 1 1 2 3 4 3 2 1 4 3 3 3 3 3 3 8 11 12
4 3 4 4 4 5 12 14 14 9 8 7 7 7 8 7 6 7 8 8 7 6 5 3 3 1 1 0 1 1 1 1 2 3 4 3 4 3 3 3 8 11 11
4 4 4 5 5 5 11 14 12 8 7 6 5 6 8 7 10 11 9 8 8 7 8 11 8 7 7 7 4 4 5 4 3 4 3 3 4 4 3 4 6 12 12
5 5 5 6 6 5 10 14 12 7 7 5 5 5 9 9 10 11 8 8 8 5 6 9 9 9 7 8 9 5 3 3 2 3 4 4 4 4 4 3 4 6 7
Wind_Direction
229 235 238 237 235 229 224 224 229 236 239 242 243 243 247 247 241 234 239 242 236 228 224 222 222 221 223 225 227 227 225 225 223 222 223 223 225 223 220 219 218 215 212
229 232 236 235 231 226 225 222 224 231 236 238 240 240 241 240 234 231 234 242 233 225 226 228 228 227 227 227 229 229 227 226 223 221 222 224 225 224 222 219 217 215 212
231 234 239 241 235 224 220 221 225 227 233 235 239 242 244 242 238 236 238 235 235 232 230 230 231 231 230 230 230 230 229 227 224 221 223 225 225 223 220 219 216 214 212
237 238 243 248 241 229 220 218 215 216 226 229 236 246 252 258 257 253 249 238 230 233 231 230 232 234 235 234 233 232 230 227 224 221 222 224 225 223 219 217 216 213 212
258 245 246 248 242 234 229 229 222 211 224 231 237 244 245 248 254 259 256 247 236 231 230 231 232 235 239 241 238 235 232 231 227 222 220 222 225 224 220 217 215 213 212
263 251 245 244 238 236 237 230 228 224 223 229 246 252 245 244 244 247 252 252 246 240 234 231 233 239 242 244 241 236 233 232 232 227 221 219 221 223 221 216 213 212 212
270 259 255 249 239 236 237 233 229 235 238 224 235 264 267 252 248 249 247 248 250 246 236 233 231 231 240 243 242 238 235 233 234 232 225 218 218 218 218 215 211 210 211
276 275 263 257 248 242 244 238 227 231 241 213 205 236 284 293 256 246 246 255 264 260 250 246 242 234 232 235 239 238 239 238 237 237 231 221 216 214 213 213 211 210 211
278 272 264 257 251 240 242 241 231 229 240 238 207 201 217 242 284 284 242 254 319 330 313 296 269 242 225 220 235 242 246 249 246 242 238 230 217 210 210 213 213 212 212
278 271 261 251 245 237 238 242 236 227 227 238 227 214 213 199 220 287 300 274 303 301 293 283 289 293 189 168 178 216 255 269 268 258 248 240 228 214 210 214 218 217 214
278 271 261 250 242 234 233 234 234 226 220 221 212 203 212 216 209 214 267 297 326 278 259 248 247 261 89 107 112 91 61 358 313 286 269 251 235 225 216 217 224 225 220
285 274 264 251 240 234 234 232 227 217 212 203 196 190 184 186 199 195 221 258 302 297 297 319 31 49 74 98 99 92 66 11 343 324 302 279 249 234 225 224 229 231 228
287 278 268 252 239 231 227 220 213 214 206 201 197 197 195 200 195 182 184 218 249 303 345 14 18 30 44 47 44 69 51 24 7 2 7 9 20 102 135 137 229 244 242
286 281 270 252 239 230 224 219 222 222 211 206 201 193 191 204 200 184 172 165 152 8 26 18 6 21 20 29 17 24 358 0 13 21 32 47 60 74 86 86 73 334 283
303 305 292 272 261 247 233 223 230 227 206 198 191 184 183 197 206 195 170 162 152 139 71 10 13 356 1 21 13 6 346 335 340 1 22 32 42 54 65 118 244 252 255
334 353 3 354 327 292 262 236 233 224 192 184 173 169 162 137 85 162 164 162 146 135 112 38 19 354 1 8 12 8 2 8 6 349 328 333 349 354 342 317 292 274 266
350 2 2 1 348 329 309 269 219 170 142 120 111 119 110 106 101 105 114 109 102 107 108 59 25 13 18 10 357 2 14 25 19 19 8 360 358 355 344 326 310 298 291
345 353 357 357 348 348 354 28 81 93 105 107 106 107 110 105 87 84 87 82 82 91 107 93 43 20 19 6 6 14 16 28 30 33 39 40 36 23 0 334 311 297 290
337 344 356 359 358 13 41 64 89 95 99 101 103 107 109 103 87 78 78 78 80 86 90 97 67 16 6 359 358 10 25 21 34 40 44 44 42 36 21 2 342 322 307
321 332 1 17 20 31 61 85 94 96 95 90 88 88 86 90 90 85 80 81 89 87 83 83 65 22 1 334 14 11 9 7 18 25 29 29 28 26 17 9 1 350 336
304 345 31 49 41 41 89 105 103 103 97 89 77 70 70 79 81 81 86 83 87 88 81 77 62 34 12 8 360 346 9 351 355 7 356 353 355 354 352 355 358 351 343
287 34 82 75 55 56 106 109 109 101 98 94 85 73 67 63 74 75 77 77 84 94 93 84 70 54 10 358 351 6 15 26 358 337 354 323 328 325 320 334 347 350 349
211 161 129 104 81 85 112 110 107 105 99 94 89 82 76 67 71 74 64 59 55 59 83 124 99 71 24 343 16 22 21 49 1 319 355 327 324 315 309 324 345 351 351
190 177 156 133 105 106 120 115 109 101 94 89 91 96 90 69 68 81 71 55 41 29 34 75 130 145 135 171 110 83 339 21 335 341 27 352 321 318 319 333 346 351 350
185 181 162 146 121 110 122 123 115 107 99 87 83 87 94 84 77 80 76 65 47 24 39 61 80 79 67 64 71 57 38 46 11 325 356 8 320 322 330 341 348 353 350
180 171 163 157 142 134 131 132 127 122 114 104 83 74 86 96 87 83 80 75 61 31 39 49 46 38 37 39 47 66 92 87 55 338 325 357 333 346 341 331 347 354 354